QIKCOM-1 (42983 NORAD) Tracking and Keplerian Element Data

This shows tracking and keplerian element data for the satellite.

Feedback or suggestion? Click here.




ElementValue
Catalog42983
NameQIKCOM-1
Epoch Orbit5985
Epoch Day319.89857167
Epoch Year2018
RAAN337.3059
Inclination51.6407
Eccentricity0.0004734
Argument of Perigee47.9704
Mean Anonmoly312.1691
Mean Motion15.57285929
Decay Rate2.932E-05
L11 42983U 98067NF 18319.89857167 .00002932 00000-0 46122-4 0 9994
L22 42983 51.6407 337.3059 0004734 47.9704 312.1691 15.57285929 59853

Live tracking and technical data element details for QIKCOM-1 (NORAD 42983). QIKCOM-1 can be tracked NOW for your location showing map with azimuth and elevation plus other details from your city location.

Track the satellite on the map from your city or location and see movement details for azimuth, elevation, latitude, longitude, range, height, and movement on the map or in text.







IsCatalogInMostPopularTable: catalog: 42983, numindb: 145
Update: records affected: 1



GetName: 42983 QIKCOM-1

Hit Count: updated at: Mon, 19 Nov 2018 11:27:28 GMT